Location: Madrid
(40.4000°N, 3.6830°W)
Time: 21:10:55
(UTC+01:00)

ISS - Pass Details

Date: 24 February 2021
Orbit: 417 x 422 km, 51.6° (Epoch: 26 February)

Event Time Altitude Azimuth Distance (km) Brightness Sun altitude
Exits shadow 07:08:35 13° 290° (WNW) 1,302 -1.9 -9.7°
Maximum altitude 07:10:43 23° 337° (NNW) 943 -2.2 -9.3°
Drops below altitude 10° 07:13:28 10° 32° (NNE) 1,499 -0.6 -8.8°
Sets 07:15:52 0° 48° (NE) 2,365 0.8 -8.3°
